Location: Standeford and Andreas Observatories
(44.1397°N, 93.9969°W)
Time: 09:59:13
(UTC-05:00)

Cosmos 1500 Rocket - Visible Passes

Search period start: 05 July 2015 00:00
Search period end: 15 July 2015 00:00
Orbit: 603 x 633 km, 82.5° (Epoch: 04 July)

Date Brightness Start Highest point End Pass type
(mag) Time Alt. Az. Time Alt. Az. Time Alt. Az.
10 Jul 6.6 04:39:24 10° NNE 04:41:58 16° ENE 04:44:44 10° ESE visible
11 Jul 6.0 04:55:40 10° NNE 04:59:23 27° ENE 05:03:10 10° SE visible
14 Jul 6.5 04:09:58 10° NNE 04:12:39 16° ENE 04:15:30 10° ESE visible
